TimePST,TemperatureF,Dew PointF,Humidity,Sea Level PressureIn,VisibilityMPH,Wind Direction,Wind SpeedMPH,Gust SpeedMPH,PrecipitationIn,Events,Conditions,WindDirDegrees,DateUTC
12:54 AM,35.1,32.0,89,30.04,10.0,Calm,Calm,-,N/A,,Clear,0,2014-01-03 08:54:00
1:54 AM,34.0,30.0,85,30.04,10.0,Calm,Calm,-,N/A,,Clear,0,2014-01-03 09:54:00
2:54 AM,37.0,33.1,86,30.05,10.0,NNE,3.5,-,N/A,,Clear,20,2014-01-03 10:54:00
3:54 AM,36.0,32.0,86,30.03,10.0,Calm,Calm,-,N/A,,Clear,0,2014-01-03 11:54:00
4:54 AM,37.0,33.1,86,30.03,10.0,North,5.8,-,N/A,,Clear,360,2014-01-03 12:54:00
5:54 AM,35.1,32.0,89,30.04,10.0,Calm,Calm,-,N/A,,Clear,0,2014-01-03 13:54:00
6:54 AM,33.1,30.0,89,30.04,10.0,Calm,Calm,-,N/A,,Clear,0,2014-01-03 14:54:00
7:54 AM,32.0,30.0,92,30.05,10.0,NW,3.5,-,N/A,,Clear,320,2014-01-03 15:54:00
8:54 AM,43.0,37.9,82,30.05,10.0,Calm,Calm,-,N/A,,Clear,0,2014-01-03 16:54:00
9:54 AM,51.1,37.9,61,30.06,10.0,Calm,Calm,-,N/A,,Clear,0,2014-01-03 17:54:00
10:54 AM,57.9,36.0,44,30.03,10.0,Variable,3.5,-,N/A,,Clear,0,2014-01-03 18:54:00
11:54 AM,62.1,37.9,41,29.99,10.0,SW,3.5,-,N/A,,Clear,220,2014-01-03 19:54:00
12:54 PM,61.0,37.0,41,29.97,10.0,SW,4.6,-,N/A,,Clear,230,2014-01-03 20:54:00
1:54 PM,64.0,39.9,41,29.96,10.0,SSW,5.8,-,N/A,,Clear,210,2014-01-03 21:54:00
2:54 PM,66.0,37.9,36,29.94,10.0,SE,4.6,-,N/A,,Clear,140,2014-01-03 22:54:00
3:54 PM,64.9,36.0,34,29.94,10.0,ESE,5.8,-,N/A,,Clear,120,2014-01-03 23:54:00
4:54 PM,57.9,35.1,42,29.93,10.0,SE,5.8,-,N/A,,Clear,140,2014-01-04 00:54:00
5:54 PM,50.0,39.9,68,29.93,10.0,Calm,Calm,-,N/A,,Clear,0,2014-01-04 01:54:00
6:54 PM,48.0,37.9,68,29.93,10.0,Calm,Calm,-,N/A,,Clear,0,2014-01-04 02:54:00
7:54 PM,42.1,33.1,70,29.95,10.0,SE,4.6,-,N/A,,Clear,140,2014-01-04 03:54:00
8:54 PM,41.0,33.1,73,29.95,10.0,Calm,Calm,-,N/A,,Clear,0,2014-01-04 04:54:00
9:54 PM,37.9,33.1,83,29.96,10.0,Calm,Calm,-,N/A,,Clear,0,2014-01-04 05:54:00
10:54 PM,37.0,35.1,93,29.97,10.0,Calm,Calm,-,N/A,,Clear,0,2014-01-04 06:54:00
11:54 PM,37.9,33.1,83,29.97,10.0,North,3.5,-,N/A,,Clear,10,2014-01-04 07:54:00